New York, NY

8:11 AM EST on November 15, 2019 (GMT -0500)
La Guardia

Weather History for KLGA - August, 2019

Change the Weather History Date:

Saturday, August 3, 2019

  Actual Average Record
Temperature  
Mean Temperature 80 °F 78 °F  
Max Temperature 89 °F 85 °F 100 °F (2006)
Min Temperature 70 °F 70 °F 59 °F (1953)
Degree Days  
Heating Degree Days 0 0  
Month to date heating degree days 0 0  
Since 1 June heating degree days 4 16  
Since 1 July heating degree days 0 0  
Cooling Degree Days 15 13  
Month to date cooling degree days 47 39  
Year to date cooling degree days 872 721  
Since 1 June cooling degree days 810 655  
Growing Degree Days 32 (Base 50)    
Moisture  
Dew Point 67 °F    
Average Humidity 64    
Maximum Humidity 79    
Minimum Humidity 48    
Precipitation  
Precipitation 0.12 in 0.16 in 2.80 in (1946)
Month to date precipitation 0.12 0.46  
Year to date precipitation 32.82 26.59  
Snow  
Snow 0.00 in 0.00 in - ()
Month to date snowfall 0.0 0.0  
Since 1 July snowfall 0.0 0.0  
Snow Depth 0.00 in    
Sea Level Pressure  
Sea Level Pressure 30.00 in    
Wind  
Wind Speed 10 mph (South)    
Max Wind Speed 30 mph    
Max Gust Speed 41 mph    
Visibility 10 miles    
Events Rain , Thunderstorm    
T = Trace of Precipitation, MM = Missing Value Source: NWS Daily Summary

Daily Weather History Graph

Daily Weather History Graph

Search for Another Location

Airport or City:

Astronomy

Aug. 03, 2019 Rise Set
Actual Time 5:53 AM EDT 8:09 PM EDT
Civil Twilight 5:23 AM EDT 8:39 PM EDT
Nautical Twilight 4:45 AM EDT 9:17 PM EDT
Astronomical Twilight 4:03 AM EDT 9:58 PM EDT
Moon 8:44 AM EDT (8/3) 10:11 PM EDT (8/3)
Length of Visible Light 15h 16m
Length of Day
14h 15m
Waxing Crescent, 10% of the Moon is Illuminated
Aug 3
Waxing Crescent
Aug 7
First Quarter
Aug 15
Full
Aug 23
Last Quarter
Aug 30
New

Hourly Weather History & Observations

Time (EDT) Temp. Heat Index Dew Point Humidity Pressure Visibility Wind Dir Wind Speed Gust Speed Precip Events Conditions
12:51 AM 77.0 °F - 66.0 °F 69% 30.09 in 10.0 mi South 6.9 mph - N/A   Mostly Cloudy
1:51 AM 75.9 °F - 66.9 °F 74% 30.08 in 10.0 mi South 8.1 mph - N/A   Mostly Cloudy
2:51 AM 75.9 °F - 66.9 °F 74% 30.08 in 10.0 mi SW 5.8 mph - N/A   Mostly Cloudy
3:51 AM 75.9 °F - 68.0 °F 76% 30.06 in 10.0 mi SSW 6.9 mph - N/A   Mostly Cloudy
4:51 AM 75.0 °F - 68.0 °F 79% 30.06 in 10.0 mi SSW 4.6 mph - N/A   Scattered Clouds
5:51 AM 75.0 °F - 68.0 °F 79% 30.06 in 10.0 mi SSW 4.6 mph - N/A   Scattered Clouds
6:51 AM 75.9 °F - 68.0 °F 76% 30.07 in 10.0 mi South 4.6 mph - N/A   Mostly Cloudy
7:51 AM 77.0 °F - 68.0 °F 74% 30.06 in 10.0 mi SSW 6.9 mph - N/A   Mostly Cloudy
8:51 AM 78.1 °F - 66.0 °F 66% 30.06 in 10.0 mi SSW 5.8 mph - N/A   Mostly Cloudy
9:51 AM 81.0 °F 83.0 °F 66.0 °F 60% 30.04 in 10.0 mi Variable 4.6 mph - N/A   Mostly Cloudy
10:51 AM 82.0 °F 83.1 °F 63.0 °F 52% 30.04 in 10.0 mi South 4.6 mph - N/A   Mostly Cloudy
11:51 AM 82.9 °F 84.6 °F 64.9 °F 54% 30.02 in 10.0 mi SSE 8.1 mph - N/A   Mostly Cloudy
12:51 PM 84.9 °F 86.1 °F 64.0 °F 49% 30.00 in 10.0 mi SSE 11.5 mph - N/A   Mostly Cloudy
1:51 PM 86.0 °F 87.6 °F 64.9 °F 49% 29.98 in 10.0 mi SSE 15.0 mph - N/A   Mostly Cloudy
2:51 PM 84.9 °F 86.6 °F 64.9 °F 51% 29.96 in 10.0 mi SSE 13.8 mph 18.4 mph N/A   Scattered Clouds
3:51 PM 84.9 °F 85.9 °F 63.0 °F 48% 29.94 in 10.0 mi South 8.1 mph - N/A   Scattered Clouds
4:51 PM 84.9 °F 86.1 °F 64.0 °F 49% 29.93 in 10.0 mi South 12.7 mph 19.6 mph N/A   Scattered Clouds
5:51 PM 84.0 °F 86.5 °F 66.9 °F 56% 29.92 in 10.0 mi SSE 12.7 mph - N/A   Scattered Clouds
6:51 PM 82.0 °F 84.5 °F 66.9 °F 60% 29.92 in 10.0 mi South 13.8 mph - N/A   Scattered Clouds
7:51 PM 81.0 °F 83.0 °F 66.0 °F 60% 29.92 in 10.0 mi SSE 12.7 mph - N/A   Mostly Cloudy
8:51 PM 80.1 °F 82.7 °F 68.0 °F 67% 29.93 in 10.0 mi South 13.8 mph - N/A   Mostly Cloudy
9:51 PM 79.0 °F - 69.1 °F 72% 29.93 in 10.0 mi South 15.0 mph - N/A   Mostly Cloudy
10:51 PM 79.0 °F - 70.0 °F 74% 29.93 in 10.0 mi South 12.7 mph - N/A   Mostly Cloudy
11:13 PM 79.0 °F - 70.0 °F 74% 29.94 in 10.0 mi SW 10.4 mph - N/A Thunderstorm Thunderstorm
11:51 PM 70.0 °F - 64.9 °F 84% 29.98 in 6.0 mi North 17.3 mph 28.8 mph 0.07 in Rain , Thunderstorm Thunderstorms and Rain